Temp
61 66 69 66 67 69 62 61 53 60 63 58 63 65 69 68 75 77 75 75 73 70 69 67 66 67 68 69 69 72 71 72 73 75 74 76 77 77 80 76 77 76 75 75
57 68 68 67 69 70 70 70 67 64 59 65 67 65 64 63 67 71 72 73 74 73 70 68 67 68 69 68 70 73 70 70 72 72 74 73 73 73 73 73 73 75 75 73
47 62 64 55 65 68 67 68 62 54 58 63 60 61 62 61 64 64 65 65 69 71 71 71 69 68 70 71 72 70 69 70 70 73 73 73 73 73 73 72 72 71 70 65
49 54 42 59 68 70 65 67 67 63 62 62 59 59 62 64 63 62 61 61 63 64 65 66 72 72 73 73 72 71 70 72 72 70 70 69 70 70 71 71 71 69 68 66
46 47 56 61 64 63 61 57 67 64 64 64 63 63 60 63 61 60 60 60 61 61 62 63 65 68 71 70 70 70 70 70 70 69 68 68 67 68 69 69 67 65 65 64
50 44 44 53 64 66 67 48 64 66 62 61 62 53 58 60 60 59 57 57 58 59 60 60 62 64 65 66 67 69 70 70 70 69 68 67 66 66 67 65 63 62 61 64
45 41 49 57 64 67 48 46 61 64 62 59 55 56 57 59 57 58 57 57 58 58 57 59 60 61 60 62 62 63 66 69 69 69 69 67 66 66 66 65 63 62 61 60
46 42 40 59 62 53 53 57 61 61 60 57 57 57 56 56 55 55 55 56 57 55 55 57 59 60 59 59 61 63 63 64 65 67 68 66 65 66 63 65 62 61 61 61
49 46 53 57 55 58 58 61 60 57 57 55 54 54 54 53 53 53 54 55 56 56 56 56 57 59 57 58 60 61 61 61 63 61 64 66 64 64 64 64 64 63 64 63
49 53 55 56 59 59 66 61 62 60 57 55 53 54 53 52 52 53 54 54 55 55 55 55 57 58 59 59 60 60 59 60 59 54 54 57 60 58 58 57 60 62 63 63
51 53 57 59 65 67 65 64 62 61 58 56 55 53 53 52 53 54 54 55 56 55 55 55 57 58 58 60 61 59 59 60 59 55 51 51 48 48 52 47 48 54 57 56
49 54 56 60 67 68 65 62 62 60 58 58 55 53 55 53 54 55 54 55 55 55 55 55 56 56 58 60 60 58 58 60 58 59 57 53 50 46 46 46 45 44 44 50
58 62 61 65 69 69 65 65 64 61 59 57 56 54 53 52 52 55 55 55 54 55 56 56 56 57 58 58 59 59 58 55 58 57 59 57 57 55 51 47 46 44 43 44
66 64 61 66 63 68 68 68 65 64 62 60 58 57 56 53 52 52 53 55 54 56 56 56 57 56 58 58 58 58 57 57 58 59 59 58 59 58 57 54 53 52 47 48
68 68 67 68 69 68 68 67 64 61 61 60 62 59 58 55 53 53 54 55 55 54 53 55 55 55 58 58 55 54 57 57 57 55 57 58 58 56 56 57 55 53 51 49
67 68 69 67 68 67 67 69 64 62 64 62 62 60 60 60 58 57 57 57 54 53 55 54 54 55 56 58 58 56 54 59 59 57 57 57 54 57 57 56 51 52 49 50
62 61 63 62 64 65 65 67 66 66 66 64 64 62 61 60 59 58 58 59 59 57 57 57 56 58 58 57 56 56 56 53 58 52 53 54 52 52 54 54 53 50 49 54
66 66 66 65 63 64 65 65 65 63 62 65 66 62 61 59 58 59 61 61 58 57 58 59 58 59 58 57 56 55 54 54 53 53 53 53 53 52 53 53 53 50 48 49
70 67 67 68 66 64 63 64 64 62 63 63 62 61 61 60 59 62 62 59 57 55 57 59 61 61 57 58 59 56 55 55 54 53 53 54 53 53 53 54 55 54 52 52
69 69 69 68 68 66 63 65 64 62 63 63 62 61 59 60 58 59 59 57 55 59 62 60 59 57 58 61 63 56 59 56 54 53 52 52 52 52 53 52 53 53 53 52
67 67 66 65 65 66 65 64 64 63 63 62 60 58 57 58 59 58 55 53 54 55 59 61 59 56 56 58 60 58 57 56 58 55 56 55 54 52 52 53 54 53 53 51
65 65 64 65 63 63 64 64 64 63 61 62 62 59 58 56 57 56 55 54 52 56 59 56 56 57 57 60 55 55 55 55 57 57 55 56 56 52 54 55 54 56 56 54
65 64 64 63 62 62 65 65 63 63 59 59 59 58 56 55 55 57 52 55 55 54 54 53 55 56 56 51 53 53 54 54 53 52 56 57 57 55 52 53 54 56 55 53
64 63 64 64 64 62 59 60 62 61 60 59 59 59 57 55 54 55 55 55 54 56 54 54 53 55 53 50 51 51 52 52 51 51 52 49 51 52 53 51 54 55 56 53
65 65 64 64 61 61 60 59 60 58 58 59 58 60 59 58 55 59 58 56 54 55 54 56 57 55 52 52 51 50 50 51 51 51 51 50 50 49 49 50 50 50 50 51
64 67 67 66 65 64 63 61 60 60 60 57 57 58 59 59 58 59 59 57 56 55 55 54 53 51 53 53 52 51 51 51 50 50 49 50 50 50 49 48 48 48 50 53
67 61 64 62 65 64 64 61 60 58 59 58 58 59 60 61 58 58 58 59 58 58 59 56 55 55 55 54 53 52 51 50 47 50 49 49 48 48 49 50 50 48 48 50
MSLP
1008.07 1007.17 1006.77 1006.27 1005.73 1005.37 1005.38 1005.63 1006.34 1006.87 1007.14 1008.60 1008.99 1010.17 1009.22 1007.93 1007.34 1007.01 1008.19 1008.80 1010.15 1011.54 1012.66 1013.81 1014.49 1015.19 1015.55 1015.96 1016.35 1017.08 1016.61 1016.47 1016.46 1016.78 1017.40 1017.48 1017.54 1017.70 1017.88 1018.25 1018.52 1018.82 1019.19 1019.45
1008.45 1007.54 1006.95 1006.67 1006.43 1005.99 1005.98 1006.39 1005.92 1007.82 1008.63 1009.43 1009.01 1009.65 1010.81 1010.04 1009.16 1009.16 1009.22 1009.75 1010.67 1011.51 1012.73 1013.69 1014.51 1014.67 1014.98 1014.78 1015.78 1016.28 1016.51 1016.49 1016.65 1017.36 1017.39 1017.54 1018.11 1018.13 1018.00 1018.37 1018.58 1018.83 1019.05 1019.56
1009.38 1008.23 1007.50 1007.97 1007.78 1006.87 1007.04 1007.99 1008.34 1009.57 1010.70 1010.75 1011.39 1011.51 1011.25 1012.56 1011.50 1010.57 1011.31 1012.01 1012.03 1011.86 1012.36 1013.21 1013.95 1014.22 1014.73 1014.71 1015.37 1016.12 1016.54 1016.67 1017.18 1017.54 1017.55 1017.79 1018.03 1018.16 1018.23 1018.09 1018.95 1019.16 1019.60 1019.97
1010.72 1009.67 1009.59 1009.25 1008.37 1008.32 1008.71 1009.69 1010.04 1010.98 1011.28 1012.09 1012.43 1012.19 1012.21 1012.70 1012.49 1012.93 1013.31 1013.85 1014.39 1013.46 1013.71 1013.82 1013.75 1014.02 1014.61 1015.14 1015.84 1016.17 1016.57 1016.81 1017.05 1017.57 1017.79 1017.98 1018.12 1018.16 1018.36 1018.65 1019.16 1019.77 1020.11 1020.54
1011.67 1011.08 1010.33 1009.97 1010.04 1010.23 1010.10 1011.25 1011.48 1011.97 1012.83 1013.22 1013.17 1012.77 1013.62 1013.67 1013.86 1014.51 1014.94 1015.45 1015.95 1015.75 1015.34 1014.86 1014.54 1014.21 1014.54 1015.05 1015.59 1015.96 1016.27 1016.63 1017.03 1017.32 1017.70 1018.02 1018.47 1018.52 1018.83 1019.06 1019.47 1019.90 1020.30 1020.70
1013.11 1012.31 1012.10 1012.44 1011.72 1011.42 1010.81 1012.63 1013.16 1013.19 1013.83 1014.11 1014.29 1015.17 1015.59 1015.71 1015.63 1015.74 1016.32 1016.47 1016.80 1016.97 1016.67 1016.39 1015.69 1015.04 1015.15 1015.61 1015.88 1016.10 1016.17 1016.47 1016.75 1017.15 1017.64 1018.27 1018.60 1018.88 1019.17 1019.54 1020.03 1020.47 1020.81 1021.05
1015.16 1014.61 1013.72 1013.75 1012.93 1011.97 1012.59 1014.72 1014.33 1014.08 1014.35 1015.04 1016.06 1017.13 1017.67 1017.69 1017.75 1017.81 1017.67 1017.18 1017.52 1017.72 1017.46 1017.45 1017.17 1016.45 1016.76 1017.01 1016.67 1016.39 1016.61 1016.81 1017.23 1017.49 1017.76 1018.33 1018.99 1019.23 1019.42 1019.97 1020.36 1020.65 1020.92 1021.40
1015.61 1015.61 1015.50 1014.41 1013.95 1014.28 1015.07 1014.77 1014.71 1015.00 1015.64 1016.03 1016.77 1017.61 1018.47 1018.84 1018.57 1018.16 1017.94 1017.55 1017.89 1018.24 1018.33 1018.22 1018.19 1017.73 1017.62 1018.03 1017.99 1017.71 1017.41 1017.70 1017.96 1017.97 1018.31 1018.73 1019.26 1019.72 1019.82 1020.12 1020.52 1021.08 1021.49 1021.90
1015.47 1015.47 1015.92 1016.49 1016.05 1015.31 1015.39 1014.69 1015.29 1015.83 1016.77 1016.86 1017.57 1017.95 1018.88 1019.15 1019.03 1019.05 1019.33 1018.88 1019.11 1019.32 1019.42 1019.13 1018.99 1018.87 1018.67 1018.93 1018.55 1018.86 1018.42 1018.72 1018.82 1019.25 1019.29 1019.19 1019.73 1020.21 1020.44 1020.71 1021.29 1021.54 1021.88 1022.26
1015.32 1015.51 1016.06 1015.91 1015.67 1015.46 1014.94 1015.43 1016.03 1016.47 1017.12 1017.29 1018.02 1019.29 1019.69 1019.07 1019.38 1019.87 1019.92 1019.40 1019.73 1019.93 1020.13 1020.19 1019.74 1019.68 1019.68 1019.67 1019.23 1019.57 1019.67 1019.95 1020.15 1020.63 1020.83 1020.89 1020.72 1021.49 1021.51 1021.84 1022.23 1022.12 1022.08 1022.49
1014.95 1015.20 1015.47 1015.25 1014.33 1014.27 1015.20 1015.81 1016.32 1016.95 1017.69 1018.23 1018.79 1019.61 1019.91 1019.95 1019.50 1020.00 1019.96 1020.27 1020.35 1020.49 1020.45 1020.71 1020.55 1020.34 1020.29 1020.09 1020.13 1020.40 1020.34 1020.52 1020.76 1021.13 1021.80 1022.14 1022.42 1023.06 1023.51 1023.31 1023.21 1023.19 1023.05 1022.78
1013.24 1014.02 1014.05 1013.99 1013.82 1014.39 1015.11 1015.63 1016.13 1017.02 1018.13 1018.90 1019.49 1019.97 1020.27 1020.37 1020.15 1020.19 1020.49 1020.75 1020.90 1020.94 1021.17 1021.15 1021.04 1021.09 1021.04 1020.92 1020.49 1020.63 1020.75 1020.99 1021.15 1021.27 1021.74 1022.28 1022.55 1023.40 1024.03 1024.01 1023.88 1023.57 1023.62 1023.26
1012.49 1012.86 1013.28 1013.19 1013.57 1013.94 1014.57 1015.37 1015.99 1016.87 1018.04 1018.92 1019.86 1020.19 1020.38 1020.57 1020.92 1021.19 1021.15 1020.98 1020.82 1020.83 1021.08 1021.23 1021.28 1021.00 1020.96 1020.83 1020.93 1020.83 1021.10 1021.51 1021.51 1021.61 1021.54 1021.93 1021.94 1022.49 1023.53 1024.23 1023.90 1023.80 1023.76 1023.83
1011.56 1012.33 1012.89 1013.04 1013.43 1013.81 1014.41 1015.05 1015.83 1016.79 1017.71 1018.46 1019.09 1019.79 1020.32 1020.76 1021.12 1021.45 1021.78 1021.56 1021.44 1021.45 1021.44 1021.51 1021.39 1021.29 1021.23 1021.29 1021.37 1021.14 1021.40 1021.31 1021.49 1021.45 1021.54 1021.40 1021.79 1021.73 1022.04 1022.76 1023.28 1023.49 1023.75 1023.35
1011.63 1011.85 1012.24 1012.50 1012.93 1013.51 1013.92 1014.74 1015.53 1016.45 1017.23 1017.93 1018.40 1018.94 1019.76 1020.26 1020.93 1021.22 1021.55 1021.64 1021.74 1021.76 1021.69 1021.65 1021.49 1021.06 1021.09 1021.47 1021.54 1021.43 1021.48 1021.44 1021.47 1021.53 1021.81 1021.61 1021.46 1021.35 1021.58 1022.28 1022.48 1022.80 1023.32 1022.91
1011.64 1011.99 1012.17 1012.46 1012.90 1013.27 1013.76 1014.17 1015.00 1015.76 1016.45 1017.05 1017.51 1018.06 1018.53 1018.97 1019.67 1020.24 1020.68 1021.02 1021.31 1021.45 1021.53 1021.60 1021.49 1021.32 1021.26 1021.45 1021.43 1021.37 1021.41 1021.44 1021.76 1021.83 1021.71 1021.69 1021.78 1021.79 1021.89 1021.96 1022.25 1022.61 1023.17 1023.05
1011.52 1011.93 1012.25 1012.68 1012.91 1013.21 1013.53 1013.80 1014.21 1014.93 1015.52 1016.31 1016.66 1017.27 1017.72 1018.46 1019.01 1019.67 1019.92 1020.11 1020.34 1020.52 1020.70 1020.91 1021.03 1020.91 1021.07 1021.34 1021.50 1021.45 1021.35 1021.66 1021.82 1021.94 1022.09 1021.87 1021.97 1022.01 1022.02 1021.97 1022.08 1022.38 1022.55 1022.67
1011.13 1011.45 1011.92 1012.40 1012.84 1013.19 1013.55 1013.95 1014.36 1014.89 1015.39 1015.97 1016.05 1016.94 1017.43 1017.80 1018.14 1018.46 1018.75 1019.04 1019.53 1019.87 1019.93 1019.79 1020.01 1020.27 1020.44 1020.83 1021.05 1021.25 1021.50 1021.66 1021.78 1022.14 1022.23 1022.15 1022.03 1022.06 1022.21 1022.13 1022.20 1022.61 1022.53 1022.61
1010.97 1011.37 1011.81 1012.25 1012.69 1013.19 1013.73 1014.20 1014.63 1015.14 1015.62 1015.88 1016.38 1016.83 1017.27 1017.43 1017.67 1017.79 1018.11 1018.51 1018.99 1019.30 1019.13 1019.10 1019.27 1019.73 1020.01 1020.30 1020.52 1020.75 1021.04 1021.13 1021.53 1021.77 1021.93 1021.97 1021.93 1021.91 1022.08 1022.15 1022.18 1022.20 1022.54 1022.42
1011.00 1011.35 1011.85 1012.38 1012.79 1013.24 1013.79 1014.25 1014.61 1014.94 1015.29 1015.75 1016.20 1016.63 1017.02 1017.35 1017.61 1017.81 1018.04 1018.59 1018.75 1018.55 1018.19 1018.38 1018.78 1019.30 1019.52 1019.83 1020.25 1020.59 1020.67 1020.56 1020.87 1021.27 1021.55 1021.59 1021.53 1021.70 1021.78 1021.71 1021.85 1021.77 1021.87 1022.01
1011.09 1011.51 1012.02 1012.54 1012.96 1013.39 1013.78 1014.07 1014.49 1014.88 1015.23 1015.69 1016.27 1016.67 1017.07 1017.32 1017.64 1017.99 1018.40 1018.72 1019.01 1018.53 1018.24 1018.29 1018.63 1018.91 1019.15 1019.47 1019.85 1020.21 1020.38 1020.30 1020.32 1020.66 1020.72 1020.75 1020.91 1021.05 1021.25 1021.37 1021.41 1021.39 1021.57 1021.91
1010.79 1011.33 1011.86 1012.36 1012.85 1013.31 1013.61 1013.88 1014.30 1014.77 1015.42 1015.77 1016.06 1016.60 1017.09 1017.47 1017.67 1017.98 1018.40 1018.62 1018.98 1018.74 1018.94 1019.19 1019.37 1019.27 1019.31 1019.31 1019.51 1019.61 1019.66 1019.73 1019.78 1019.85 1020.11 1020.18 1020.35 1020.42 1020.53 1020.67 1020.83 1020.89 1020.97 1021.00
1010.34 1010.75 1011.26 1011.82 1012.33 1012.76 1013.03 1013.48 1013.98 1014.47 1015.35 1015.79 1016.24 1016.69 1017.17 1017.52 1017.86 1017.92 1018.62 1018.84 1018.86 1018.94 1019.20 1019.40 1019.59 1019.68 1019.73 1019.69 1019.62 1019.57 1019.52 1019.47 1019.59 1019.67 1019.72 1019.54 1019.65 1019.79 1020.09 1020.25 1020.34 1020.41 1020.59 1020.90
1009.91 1010.26 1010.63 1011.07 1011.48 1012.11 1012.77 1013.35 1013.64 1014.37 1014.97 1015.43 1015.97 1016.42 1016.85 1017.35 1017.82 1017.87 1018.24 1018.60 1018.88 1019.08 1019.29 1019.45 1019.59 1019.67 1019.69 1019.58 1019.55 1019.57 1019.48 1019.44 1019.49 1019.53 1019.51 1019.53 1019.66 1019.72 1019.86 1019.86 1019.96 1019.99 1020.10 1020.42
1008.83 1009.31 1009.85 1010.36 1010.84 1011.59 1012.33 1013.01 1013.58 1014.21 1014.83 1015.43 1015.87 1016.27 1016.47 1016.81 1017.20 1017.88 1018.00 1018.39 1018.71 1019.02 1019.27 1019.37 1019.46 1019.46 1019.49 1019.38 1019.32 1019.33 1019.33 1019.34 1019.30 1019.36 1019.42 1019.52 1019.62 1019.67 1019.71 1019.68 1019.74 1019.77 1019.94 1019.91
1008.27 1008.60 1008.93 1009.26 1009.77 1010.62 1011.59 1012.48 1013.41 1014.17 1014.69 1015.71 1016.07 1016.20 1016.42 1016.69 1017.02 1017.53 1017.80 1018.05 1018.39 1018.67 1018.81 1018.91 1019.03 1019.08 1019.17 1019.17 1019.29 1019.25 1019.15 1019.08 1019.07 1019.19 1019.26 1019.32 1019.40 1019.45 1019.37 1019.21 1019.14 1019.19 1019.23 1019.26
1007.82 1008.26 1008.97 1009.64 1009.97 1010.43 1011.21 1012.26 1013.25 1014.05 1014.38 1015.35 1015.73 1015.91 1016.15 1016.41 1016.64 1016.87 1017.19 1017.40 1017.53 1017.79 1018.02 1018.21 1018.49 1018.49 1018.56 1018.76 1018.95 1019.15 1019.11 1018.97 1018.87 1018.93 1019.02 1019.00 1019.00 1018.93 1018.76 1018.62 1018.41 1018.34 1018.39 1018.40
Wind_Speed
6 5 10 10 11 15 8 8 2 3 7 7 2 5 13 22 14 15 16 15 16 16 12 12 13 11 10 7 9 9 6 5 4 4 3 2 3 6 5 6 7 6 6 5
5 7 6 6 11 12 10 15 9 16 12 5 12 14 14 20 23 8 8 9 9 16 18 16 15 14 14 16 14 3 4 4 6 2 2 3 3 6 5 4 0 4 5 6
5 7 5 3 7 7 10 19 11 11 5 9 9 9 4 6 14 19 15 14 8 9 11 13 16 15 13 14 13 8 5 5 5 6 3 2 5 6 4 4 5 4 6 10
3 5 3 4 10 11 16 18 17 14 13 11 5 4 11 12 14 13 15 16 11 9 10 9 5 11 11 12 13 10 8 6 6 5 6 5 5 1 5 5 8 7 8 7
4 5 4 9 9 9 7 10 14 12 11 9 5 8 9 13 17 13 10 9 10 10 9 8 9 3 8 7 8 8 8 8 6 6 6 6 6 5 3 7 7 6 5 6
7 1 2 8 14 9 8 5 14 12 11 8 4 5 3 11 11 13 11 10 10 9 7 10 9 8 10 7 5 5 6 6 6 6 7 6 6 5 5 6 7 5 7 8
4 3 3 11 16 13 3 1 3 8 12 13 9 6 5 6 9 9 8 10 8 9 10 8 8 9 12 8 8 5 6 7 7 7 8 6 5 4 7 7 7 6 8 7
1 3 5 9 5 5 6 7 4 9 13 17 14 11 9 7 8 10 10 11 11 8 8 9 8 8 11 11 7 7 9 9 7 6 7 5 7 5 6 7 6 5 6 5
4 3 4 5 6 8 9 10 8 11 9 12 12 11 7 6 8 10 8 9 8 7 8 9 9 9 11 7 8 8 10 10 9 10 7 6 6 5 5 4 3 3 4 4
3 4 9 14 2 13 4 13 11 10 8 11 13 9 7 9 9 7 5 8 6 7 8 7 7 8 7 6 6 7 8 9 8 9 8 9 8 7 5 5 3 3 1 3
1 5 2 6 5 12 14 12 13 12 11 11 11 9 8 7 9 6 7 6 5 5 6 6 6 7 6 6 4 5 5 5 6 6 7 7 8 5 4 5 3 2 4 3
2 11 6 6 6 10 11 12 12 13 10 11 9 9 8 7 7 8 7 5 5 5 4 5 5 5 5 4 5 5 5 3 1 3 4 4 6 6 9 5 5 5 6 4
5 7 8 6 5 10 10 12 11 12 11 11 8 6 5 5 2 4 2 3 6 8 6 4 3 4 4 5 4 6 5 3 0 2 5 5 5 6 5 0 4 6 8 9
9 9 5 5 6 9 10 12 13 13 12 12 11 8 7 5 4 3 1 2 4 4 3 3 3 2 1 1 0 4 3 2 2 1 2 3 4 4 5 5 4 3 3 5
7 6 7 7 8 8 7 12 13 12 13 12 12 10 10 10 8 7 6 5 4 2 1 2 3 5 5 1 0 2 3 4 3 4 3 2 1 3 4 4 4 4 1 3
6 6 4 8 7 6 8 9 14 12 12 12 10 12 13 11 11 10 9 8 6 5 6 6 5 5 3 5 4 2 2 3 4 4 2 3 4 4 4 4 4 4 2 3
6 7 4 3 6 6 4 2 5 10 10 12 10 11 10 9 8 8 8 9 10 8 8 7 7 7 7 5 4 3 2 2 1 2 2 1 1 3 2 2 2 4 4 5
3 8 9 6 5 3 4 6 6 9 8 7 6 7 7 8 8 10 10 9 7 7 7 8 7 7 7 7 5 3 3 3 3 2 3 2 2 2 3 1 2 4 3 4
4 9 9 7 6 7 7 5 3 8 8 5 6 4 5 5 2 4 3 7 8 7 8 8 11 10 7 9 8 4 4 5 5 4 4 4 3 3 3 3 3 1 5 4
5 8 7 5 6 6 7 6 4 7 7 6 5 4 4 4 5 5 4 4 2 3 6 7 7 7 7 10 11 4 5 5 5 5 5 5 5 5 5 5 4 4 3 5
8 8 7 7 6 5 5 5 4 3 5 7 6 5 5 4 4 4 4 2 4 6 6 6 3 1 4 4 7 6 5 5 4 5 6 7 5 5 6 6 5 4 4 5
8 8 8 8 7 8 7 6 5 4 7 6 7 5 4 2 1 1 5 4 2 9 7 6 4 8 5 8 3 5 5 5 4 3 4 5 6 5 5 5 5 5 5 5
7 8 9 9 9 9 9 8 8 7 8 8 7 5 3 2 1 3 5 3 4 4 5 4 4 4 5 3 3 3 3 5 5 5 5 3 4 3 4 3 3 3 1 4
8 9 10 9 9 7 9 8 8 8 7 7 7 5 4 2 1 4 6 7 7 6 5 4 4 3 1 2 3 3 4 3 3 3 3 2 3 3 3 4 3 4 5 6
11 11 10 11 9 8 11 9 8 8 8 7 6 6 3 2 4 7 5 5 9 7 5 6 6 5 3 0 2 2 3 3 4 3 3 3 4 4 4 4 4 4 4 4
7 8 10 13 10 10 10 9 8 7 7 5 4 4 4 4 5 7 5 6 6 7 5 5 5 5 4 3 2 2 1 1 1 2 2 2 3 4 5 6 6 6 6 5
7 6 5 6 7 9 10 8 6 4 6 6 6 5 5 5 6 6 6 5 5 7 7 5 5 6 4 6 5 3 1 2 3 3 1 1 2 4 5 6 6 5 5 5
Wind_Direction
218 299 242 293 303 318 335 303 257 205 144 113 84 351 284 249 258 167 175 166 145 146 144 146 146 150 156 164 248 258 211 170 189 167 93 26 174 180 162 184 174 169 182 195
290 271 252 316 341 301 314 342 294 76 64 11 12 45 350 37 18 9 98 121 131 139 148 157 161 171 188 177 212 208 151 139 113 175 208 164 306 321 102 61 170 205 197 94
293 2 60 63 10 340 6 44 48 55 18 56 70 55 22 61 63 351 46 36 35 106 145 154 173 182 176 172 170 178 173 169 193 196 173 145 196 182 144 89 331 0 80 90
269 49 289 105 32 19 68 59 59 69 59 64 69 59 19 48 73 67 31 21 9 34 47 25 148 169 173 176 182 169 169 164 171 153 138 111 83 111 176 159 148 131 106 117
178 179 222 54 26 22 360 46 47 54 59 96 119 80 46 46 56 47 58 53 15 14 11 12 4 314 158 144 157 162 164 151 153 138 120 108 100 84 61 112 112 106 98 92
331 105 260 37 9 331 306 58 14 63 59 19 331 68 43 25 47 66 38 33 31 23 26 16 2 34 64 73 109 94 140 149 146 136 121 114 107 94 91 97 104 97 95 84
7 354 13 0 335 320 23 114 25 34 84 78 66 53 69 42 60 68 70 56 38 39 40 25 20 50 66 49 53 29 47 99 108 114 106 115 131 116 111 110 103 101 90 81
15 151 276 0 349 65 236 285 119 65 98 103 104 84 58 48 46 50 48 51 43 49 46 37 31 63 72 58 30 38 58 53 54 88 109 101 97 104 98 115 109 110 122 124
154 186 85 24 328 308 307 83 82 91 93 106 109 98 100 81 58 54 52 61 57 52 55 48 46 50 65 43 52 51 58 47 48 41 37 75 94 98 90 84 102 143 162 148
105 144 133 98 139 263 177 97 90 92 92 92 99 118 123 103 85 69 62 57 51 60 57 48 43 50 50 56 57 57 60 74 68 58 47 37 52 35 61 53 45 40 245 141
90 64 171 213 169 101 106 108 103 92 97 105 114 112 114 105 96 74 70 64 64 63 68 40 33 42 33 51 65 75 62 80 105 102 97 86 71 47 52 57 54 31 16 54
148 176 146 151 115 130 129 127 120 116 111 116 128 135 138 135 133 131 127 125 109 107 103 106 89 71 45 37 78 74 74 64 99 121 140 131 126 98 48 81 81 74 69 96
141 128 129 143 105 144 129 133 128 121 130 133 139 144 135 117 51 17 27 101 140 139 129 78 58 81 67 52 34 75 85 60 6 246 162 163 146 147 151 153 74 72 85 78
131 118 117 172 149 114 137 133 137 139 147 153 149 150 149 146 129 153 195 100 123 124 121 140 118 97 352 21 74 74 7 2 35 358 132 177 212 165 154 161 163 145 82 111
128 146 172 154 138 138 140 144 144 157 163 165 168 161 167 162 179 189 189 193 198 186 219 225 199 188 179 195 302 32 43 47 37 48 359 44 67 117 161 172 154 133 173 80
164 184 116 128 133 151 167 177 173 179 179 182 175 170 183 179 182 188 186 187 179 218 215 218 231 229 201 193 207 199 126 44 24 9 359 26 22 11 20 74 141 147 162 148
171 154 131 72 158 158 129 18 72 182 177 174 196 178 173 168 168 174 194 194 196 199 205 197 214 208 185 182 204 228 163 159 254 4 314 283 319 314 303 356 94 144 153 165
237 157 149 167 153 138 132 89 77 95 110 140 186 178 177 182 196 199 208 197 190 208 210 212 199 195 178 179 197 233 204 194 170 229 272 297 289 336 337 327 16 124 157 163
200 145 156 170 164 142 122 108 127 115 102 85 87 109 127 123 128 183 180 188 189 200 236 213 191 187 182 195 193 203 215 202 189 192 213 259 267 250 274 299 281 232 178 170
168 134 129 137 128 135 141 164 206 146 155 164 153 126 92 40 116 104 93 87 47 253 221 207 197 187 193 194 200 203 224 220 204 197 196 208 212 221 227 237 246 254 254 199
162 145 153 154 152 131 127 138 147 157 162 140 142 143 120 95 76 68 35 80 356 349 52 72 65 174 187 193 189 202 231 244 217 204 206 203 211 208 203 216 228 233 205 195
169 162 166 170 168 172 174 175 161 136 130 131 115 111 107 87 17 307 41 136 72 25 67 60 54 48 33 15 250 216 225 234 256 271 225 195 208 210 209 203 212 226 217 195
179 171 172 175 179 192 193 162 149 142 137 140 139 143 150 189 75 246 113 53 98 66 95 87 86 42 10 331 314 321 281 241 222 236 241 225 239 190 186 209 222 215 186 250
189 183 182 179 182 174 148 158 144 142 137 132 135 144 150 179 135 110 121 121 107 95 102 91 57 44 338 284 285 295 296 307 329 323 316 286 214 219 234 223 224 260 236 213
188 187 181 180 177 160 150 148 132 135 127 125 143 136 145 231 155 155 146 149 151 153 164 200 205 232 240 132 304 314 280 265 238 248 254 238 219 229 237 243 241 231 220 191
191 193 190 184 168 154 152 146 148 147 135 134 150 167 191 158 131 149 166 174 179 204 187 191 206 210 216 129 80 347 352 338 222 204 217 240 249 259 245 236 227 221 211 204
204 171 140 146 157 149 144 142 141 123 120 166 173 194 189 172 172 176 194 195 199 194 200 189 197 208 182 171 160 175 212 138 147 151 142 231 268 264 259 260 245 213 206 195